This is the latest recevied weather packets stored in our database for station/object KC1OEK-13. If no packets are shown the sender has not sent any weather packets the latest 10 day(s).
| Time | Temp. | Humidity | Pressure | Rain* | Wind** | Luminosity | Snow |
|---|---|---|---|---|---|---|---|
| 1777568719 | 11.67° C | 92% | 1008.1 hPa | 0 mm | - | 196 W/m² | - |
| 1777568417 | 11.11° C | 92% | 1008.1 hPa | 0 mm | - | 151 W/m² | - |
| 1777568114 | 11.11° C | 92% | 1008.1 hPa | 0 mm | - | 124 W/m² | - |
| 1777566600 | 10.56° C | 94% | 1008.6 hPa | 0 mm | - | 257 W/m² | - |
| 1777564778 | 10° C | 98% | 1008.7 hPa | 0 mm | - | 224 W/m² | - |
| 1777564169 | 9.44° C | 98% | 1009 hPa | 0 mm | - | 141 W/m² | - |
| 1777563562 | 9.44° C | 98% | 1009 hPa | 0 mm | - | 138 W/m² | - |
| 1777563261 | 9.44° C | 99% | 1009.1 hPa | 0 mm | - | 95 W/m² | - |
| 1777562959 | 9.44° C | 99% | 1008.9 hPa | 0 mm | - | 102 W/m² | - |
| 1777562654 | 9.44° C | 99% | 1009 hPa | 0 mm | - | 73 W/m² | - |
| 1777562348 | 9.44° C | 99% | 1009 hPa | 0 mm | - | 56 W/m² | - |
| 1777561132 | 9.44° C | 99% | 1009 hPa | 0 mm | - | 86 W/m² | - |
| 1777560827 | 9.44° C | 99% | 1009 hPa | 0 mm | - | 73 W/m² | - |
| 1777560223 | 8.89° C | 99% | 1009 hPa | 0 mm | - | 49 W/m² | - |
| 1777559313 | 8.89° C | 99% | 1008.9 hPa | 0 mm | - | 62 W/m² | - |
| 1777556882 | 8.89° C | 99% | 1008.7 hPa | 0 mm | - | 64 W/m² | - |
| 1777556278 | 8.89° C | 99% | 1008.9 hPa | 0 mm | - | 42 W/m² | - |
| 1777555974 | 8.89° C | 99% | 1009 hPa | 0 mm | - | 54 W/m² | - |
| 1777554760 | 8.89° C | 99% | 1008.9 hPa | 0 mm | - | 36 W/m² | - |
| 1777554457 | 8.89° C | 99% | 1008.9 hPa | 0 mm | - | 36 W/m² | - |
| 1777552633 | 8.89° C | 99% | 1009.1 hPa | 0 mm | - | 35 W/m² | - |
| 1777552330 | 8.89° C | 99% | 1009.4 hPa | 0 mm | - | 38 W/m² | - |
| 1777552027 | 8.89° C | 99% | 1009.4 hPa | 0 mm | - | 39 W/m² | - |
| 1777551724 | 8.89° C | 99% | 1009.3 hPa | 0 mm | - | 50 W/m² | - |
| 1777550511 | 8.89° C | 99% | 1009.5 hPa | 0 mm | - | 34 W/m² | - |
* Rain latest hour (hover to see other rain measurements)
** Current wind speed in m/s (hover to see current wind gust speed)